TimeCST,TemperatureF,Dew PointF,Humidity,Sea Level PressureIn,VisibilityMPH,Wind Direction,Wind SpeedMPH,Gust SpeedMPH,PrecipitationIn,Events,Conditions,WindDirDegrees,DateUTC
12:15 AM,44.6,26.6,49,30.22,10.0,North,3.5,-,N/A,,Unknown,350,2013-01-20 06:15:00
12:35 AM,44.6,24.8,46,30.23,10.0,Calm,Calm,-,N/A,,Unknown,0,2013-01-20 06:35:00
12:55 AM,44.6,26.6,49,30.23,10.0,Calm,Calm,-,N/A,,Unknown,0,2013-01-20 06:55:00
1:15 AM,41.0,24.8,53,30.24,10.0,North,3.5,-,N/A,,Unknown,350,2013-01-20 07:15:00
1:35 AM,41.0,26.6,57,30.24,10.0,North,4.6,-,N/A,,Unknown,350,2013-01-20 07:35:00
1:55 AM,39.2,26.6,61,30.26,10.0,North,4.6,-,N/A,,Unknown,350,2013-01-20 07:55:00
2:15 AM,39.2,26.6,61,30.26,10.0,NNW,5.8,-,N/A,,Unknown,340,2013-01-20 08:15:00
2:35 AM,39.2,26.6,61,30.27,10.0,North,4.6,-,N/A,,Unknown,350,2013-01-20 08:35:00
2:55 AM,39.2,26.6,61,30.29,10.0,NNW,8.1,-,N/A,,Unknown,340,2013-01-20 08:55:00
3:15 AM,37.4,26.6,65,30.29,10.0,North,3.5,-,N/A,,Unknown,360,2013-01-20 09:15:00
3:35 AM,37.4,26.6,65,30.29,10.0,Calm,Calm,-,N/A,,Unknown,0,2013-01-20 09:35:00
3:55 AM,35.6,24.8,65,30.28,10.0,NW,3.5,-,N/A,,Unknown,320,2013-01-20 09:55:00
4:15 AM,35.6,24.8,65,30.28,10.0,NW,3.5,-,N/A,,Unknown,310,2013-01-20 10:15:00
4:35 AM,33.8,19.4,56,30.29,10.0,NNW,4.6,-,N/A,,Unknown,330,2013-01-20 10:35:00
4:55 AM,33.8,17.6,52,30.29,10.0,North,3.5,-,N/A,,Unknown,350,2013-01-20 10:55:00
5:15 AM,33.8,17.6,52,30.29,10.0,NNW,3.5,-,N/A,,Unknown,340,2013-01-20 11:15:00
5:35 AM,32.0,17.6,55,30.29,10.0,North,3.5,-,N/A,,Unknown,360,2013-01-20 11:35:00
5:55 AM,30.2,17.6,60,30.30,10.0,NNW,4.6,-,N/A,,Unknown,340,2013-01-20 11:55:00
6:15 AM,30.2,15.8,55,30.30,10.0,North,4.6,-,N/A,,Unknown,10,2013-01-20 12:15:00
6:35 AM,30.2,12.2,47,30.31,10.0,NNE,6.9,-,N/A,,Unknown,20,2013-01-20 12:35:00
6:55 AM,28.4,14.0,55,30.31,10.0,North,5.8,-,N/A,,Unknown,360,2013-01-20 12:55:00
7:15 AM,28.4,14.0,55,30.32,10.0,North,6.9,-,N/A,,Unknown,10,2013-01-20 13:15:00
7:35 AM,28.4,12.2,51,30.32,10.0,North,4.6,-,N/A,,Unknown,10,2013-01-20 13:35:00
7:55 AM,28.4,12.2,51,30.31,10.0,NNE,4.6,-,N/A,,Unknown,20,2013-01-20 13:55:00
8:15 AM,28.4,12.2,51,30.32,10.0,North,4.6,-,N/A,,Unknown,10,2013-01-20 14:15:00
8:35 AM,28.4,12.2,51,30.33,10.0,NNE,5.8,-,N/A,,Unknown,20,2013-01-20 14:35:00
8:55 AM,30.2,12.2,47,30.33,10.0,NE,8.1,-,N/A,,Unknown,40,2013-01-20 14:55:00
9:15 AM,30.2,12.2,47,30.34,10.0,NNE,5.8,-,N/A,,Unknown,20,2013-01-20 15:15:00
9:35 AM,30.2,12.2,47,30.34,10.0,ENE,6.9,-,N/A,,Unknown,70,2013-01-20 15:35:00
9:55 AM,30.2,12.2,47,30.34,10.0,NE,6.9,-,N/A,,Unknown,40,2013-01-20 15:55:00
10:15 AM,32.0,12.2,44,30.34,10.0,East,8.1,-,N/A,,Unknown,90,2013-01-20 16:15:00
10:35 AM,33.8,14.0,44,30.34,10.0,ENE,5.8,-,N/A,,Unknown,70,2013-01-20 16:35:00
10:55 AM,33.8,14.0,44,30.33,10.0,NE,3.5,-,N/A,,Unknown,40,2013-01-20 16:55:00
11:15 AM,35.6,14.0,41,30.32,10.0,ESE,4.6,-,N/A,,Unknown,110,2013-01-20 17:15:00
11:35 AM,35.6,15.8,44,30.32,10.0,West,4.6,-,N/A,,Unknown,280,2013-01-20 17:35:00
11:55 AM,37.4,12.2,36,30.31,10.0,NE,5.8,-,N/A,,Unknown,50,2013-01-20 17:55:00
12:15 PM,37.4,14.0,38,30.29,10.0,East,6.9,-,N/A,,Unknown,80,2013-01-20 18:15:00
12:35 PM,39.2,15.8,39,30.28,10.0,NNE,4.6,-,N/A,,Unknown,20,2013-01-20 18:35:00
12:55 PM,39.2,14.0,36,30.27,10.0,NE,4.6,-,N/A,,Unknown,50,2013-01-20 18:55:00
1:15 PM,39.2,14.0,36,30.26,10.0,North,4.6,-,N/A,,Unknown,350,2013-01-20 19:15:00
1:35 PM,39.2,15.8,39,30.26,10.0,NE,11.5,-,N/A,,Unknown,40,2013-01-20 19:35:00
1:55 PM,39.2,14.0,36,30.26,10.0,North,6.9,-,N/A,,Unknown,10,2013-01-20 19:55:00
2:15 PM,41.0,14.0,33,30.26,10.0,NE,9.2,-,N/A,,Unknown,50,2013-01-20 20:15:00
2:35 PM,41.0,15.8,36,30.26,10.0,East,4.6,-,N/A,,Unknown,90,2013-01-20 20:35:00
2:55 PM,41.0,15.8,36,30.26,10.0,NNE,8.1,-,N/A,,Unknown,30,2013-01-20 20:55:00
3:15 PM,41.0,15.8,36,30.26,10.0,ENE,8.1,-,N/A,,Unknown,60,2013-01-20 21:15:00
3:35 PM,41.0,15.8,36,30.26,10.0,NNE,5.8,-,N/A,,Unknown,30,2013-01-20 21:35:00
3:55 PM,39.2,15.8,39,30.27,10.0,NE,9.2,-,N/A,,Unknown,50,2013-01-20 21:55:00
4:15 PM,39.2,14.0,36,30.27,10.0,NE,6.9,-,N/A,,Unknown,40,2013-01-20 22:15:00
4:35 PM,39.2,15.8,39,30.27,10.0,NNE,6.9,-,N/A,,Unknown,30,2013-01-20 22:35:00
4:55 PM,37.4,12.2,36,30.27,10.0,NE,9.2,-,N/A,,Unknown,50,2013-01-20 22:55:00
5:15 PM,35.6,10.4,35,30.27,10.0,NE,6.9,-,N/A,,Unknown,40,2013-01-20 23:15:00
5:35 PM,35.6,8.6,33,30.28,10.0,NE,8.1,-,N/A,,Unknown,40,2013-01-20 23:35:00
5:55 PM,33.8,8.6,35,30.28,10.0,NNE,5.8,-,N/A,,Unknown,20,2013-01-20 23:55:00
6:15 PM,33.8,10.4,38,30.28,10.0,NNE,6.9,-,N/A,,Unknown,30,2013-01-21 00:15:00
6:35 PM,30.2,12.2,47,30.29,10.0,NNE,8.1,-,N/A,,Unknown,30,2013-01-21 00:35:00
6:55 PM,30.2,12.2,47,30.28,10.0,NNE,9.2,-,N/A,,Unknown,30,2013-01-21 00:55:00
7:15 PM,30.2,10.4,44,30.29,10.0,NNE,5.8,-,N/A,,Unknown,20,2013-01-21 01:15:00
7:35 PM,30.2,10.4,44,30.29,10.0,NNE,5.8,-,N/A,,Unknown,30,2013-01-21 01:35:00
7:55 PM,28.4,10.4,47,30.30,10.0,NNE,6.9,-,N/A,,Unknown,30,2013-01-21 01:55:00
8:15 PM,28.4,10.4,47,30.31,10.0,North,4.6,-,N/A,,Unknown,10,2013-01-21 02:15:00
8:35 PM,28.4,8.6,43,30.31,10.0,North,10.4,-,N/A,,Unknown,360,2013-01-21 02:35:00
8:55 PM,26.6,8.6,47,30.32,10.0,North,6.9,-,N/A,,Unknown,10,2013-01-21 02:55:00
9:15 PM,26.6,8.6,47,30.32,10.0,North,5.8,-,N/A,,Unknown,10,2013-01-21 03:15:00
9:35 PM,26.6,10.4,51,30.33,10.0,North,5.8,-,N/A,,Unknown,360,2013-01-21 03:35:00
9:55 PM,26.6,8.6,47,30.34,10.0,North,4.6,-,N/A,,Unknown,360,2013-01-21 03:55:00
10:15 PM,24.8,8.6,50,30.34,10.0,North,5.8,-,N/A,,Unknown,350,2013-01-21 04:15:00
10:35 PM,24.8,10.4,54,30.34,10.0,North,4.6,-,N/A,,Unknown,10,2013-01-21 04:35:00
10:55 PM,26.6,10.4,51,30.34,10.0,North,5.8,-,N/A,,Unknown,10,2013-01-21 04:55:00
11:15 PM,24.8,10.4,54,30.34,10.0,Calm,Calm,-,N/A,,Unknown,0,2013-01-21 05:15:00
11:35 PM,24.8,10.4,54,30.34,10.0,North,3.5,-,N/A,,Unknown,350,2013-01-21 05:35:00
11:55 PM,24.8,10.4,54,30.34,10.0,North,3.5,-,N/A,,Unknown,350,2013-01-21 05:55:00